Terminal Aerodrome Forecast
Issued by NWS Miami, FL

Home | Current Version | Previous Version | Text Only | Print | Product List | Glossary On
Versions: 1 2 3 4 5 6 7 8 9 10 11 12 13 14 15 16 17 18 19 20 21 22 23 24 25 26 27 28 29 30 31 32 33 34 35 36 37 38 39 40 41 42 43 44 45 46 47 48 49 50
000
FTUS42 KMFL 280534
TAFAPF
TAF
KAPF 280534Z 2806/0106 05010KT P6SM VCSH OVC006
     FM280700 05008KT P6SM VCSH OVC008
     FM281300 04007KT 5SM BR VCSH OVC009
     FM281500 07009KT P6SM VCSH BKN010
     FM281700 09009KT P6SM VCSH SCT010 BKN035
     FM281800 12008KT P6SM VCSH SCT020 BKN050
     FM010000 06005KT P6SM FEW250=

USA.gov is the U.S. government's official web portal to all federal, state and local government web resources and services.